User: anonymous   Login
Location: Unspecified
(0.0000°N, 0.0000°E)
Time: 10:07:37
(UTC+00:00)
Language:

TBA - TO BE ASSIGNED - Orbit

View from above orbital plane
View from above orbital plane
View from above satellite
View from above satellite

Ground track
Ground track

The orbit is defined by the following mean orbital elements,

1 67815U          26145.50731559 +.00000000 +00000-0 +60601-3 0 00009
2 67815  97.2868 333.6018 0002070  94.1943 265.9536 15.33451370    00
Epoch (UTC): 25 May 2026 12:10:32
Eccentricity: 0.0002070
inclination: 97.2868°
perigee height: 464 km
apogee height: 467 km
right ascension of ascending node: 333.6018°
argument of perigee: 94.1943°
revolutions per day: 15.33451370
mean anomaly at epoch: 265.9536°

The dashed part of the orbit path shows where the satellite is in the earth's shadow,  

DLR